| time (UTC) | temp C | wind direction | speed KPH | gust KPH | rain 1hr cm | rain 24hr cm | rain mn cm | humidity % | barometer mb |
| 20260508105530 | 13 | 80 | 3.2 | 6.4 | 0.00 | 0.08 | 0.00 | ||
| 20260508105028 | 13 | 75 | 6.4 | 8.0 | 0.00 | 0.08 | 0.00 | ||
| 20260508104739 | 13 | 94 | 3.2 | 3.2 | 0.00 | 0.08 | 0.00 | ||
| 20260508104529 | 13 | 94 | 3.2 | 3.2 | 0.00 | 0.08 | 0.00 | ||
| 20260508104233 | 13 | 90 | 4.8 | 11.3 | 0.00 | 0.08 | 0.00 | ||
| 20260508104028 | 13 | 90 | 4.8 | 11.3 | 0.00 | 0.08 | 0.00 | ||
| 20260508103345 | 13 | 101 | 6.4 | 6.4 | 0.00 | 0.08 | 0.00 | ||
| 20260508103026 | 13 | 101 | 6.4 | 6.4 | 0.00 | 0.08 | 0.00 | ||
| 20260508102332 | 13 | 91 | 0.0 | 6.4 | 0.00 | 0.08 | 0.00 | ||
| 20260508102025 | 13 | 91 | 0.0 | 6.4 | 0.00 | 0.08 | 0.00 | ||
| 20260508101257 | 13 | 72 | 0.0 | 0.0 | 0.00 | 0.08 | 0.00 | ||
| 20260508101025 | 13 | 72 | 0.0 | 0.0 | 0.00 | 0.08 | 0.00 | ||
| 20260508100337 | 13 | 72 | 0.0 | 0.0 | 0.00 | 0.08 | 0.00 | ||
| 20260508100145 | 13 | 72 | 0.0 | 0.0 | 0.00 | 0.08 | 0.00 | ||
| 20260508100024 | 13 | 72 | 0.0 | 0.0 | 0.00 | 0.08 | 0.00 | ||
| 20260508095023 | 13 | 72 | 0.0 | 0.0 | 0.00 | 0.08 | 0.00 | ||
| 20260508094525 | 13 | 72 | 0.0 | 0.0 | 0.00 | 0.08 | 0.00 | ||
| 20260508094023 | 13 | 72 | 0.0 | 0.0 | 0.00 | 0.08 | 0.00 | ||
| 20260508093524 | 13 | 72 | 0.0 | 0.0 | 0.00 | 0.08 | 0.00 | ||
| 20260508092522 | 13 | 72 | 0.0 | 0.0 | 0.00 | 0.08 | 0.00 | ||
| 20260508092020 | 13 | 72 | 0.0 | 0.0 | 0.00 | 0.08 | 0.00 | ||
| 20260508091521 | 14 | 72 | 0.0 | 0.0 | 0.00 | 0.08 | 0.00 | ||
| 20260508091019 | 13 | 72 | 0.0 | 0.0 | 0.00 | 0.08 | 0.00 | ||
| 20260508090019 | 14 | 72 | 0.0 | 0.0 | 0.00 | 0.08 | 0.00 | ||
| 20260508085521 | 14 | 72 | 0.0 | 0.0 | 0.00 | 0.08 | 0.00 | ||
| 20260508083253 | 15 | 72 | 0.0 | 0.0 | 0.00 | 0.08 | 0.00 | ||
| 20260508082518 | 14 | 72 | 0.0 | 0.0 | 0.00 | 0.08 | 0.00 | ||
| 20260508082016 | 14 | 72 | 0.0 | 0.0 | 0.00 | 0.08 | 0.00 | ||
| 20260508080516 | 15 | 72 | 0.0 | 0.0 | 0.00 | 0.08 | 0.00 | ||
| 20260508080015 | 15 | 72 | 0.0 | 0.0 | 0.00 | 0.08 | 0.00 | ||
| 20260508073538 | 15 | 72 | 0.0 | 0.0 | 0.00 | 0.08 | 0.00 | ||
| 20260508072218 | 15 | 72 | 0.0 | 0.0 | 0.00 | 0.08 | 0.00 | ||
| 20260508072011 | 15 | 72 | 0.0 | 0.0 | 0.00 | 0.08 | 0.00 | ||
| 20260508071512 | 15 | 72 | 0.0 | 0.0 | 0.00 | 0.08 | 0.00 | ||
| 20260508071011 | 15 | 72 | 0.0 | 0.0 | 0.00 | 0.08 | 0.00 | ||
| 20260508070010 | 15 | 72 | 0.0 | 0.0 | 0.00 | 0.08 | 0.00 | ||
| 20260508065959 | 16 | 94 | 4.8 | 3.2 | 0.00 | 0.08 | 0.00 | ||
| 20260508065654 | 16 | 80 | 3.2 | 1.6 | 0.00 | 0.08 | 0.00 | ||
| 20260508065009 | 15 | 72 | 0.0 | 0.0 | 0.00 | 0.08 | 0.00 | ||
| 20260508064510 | 15 | 72 | 0.0 | 0.0 | 0.00 | 0.08 | 0.00 | ||
| 20260508063510 | 15 | 72 | 0.0 | 0.0 | 0.00 | 0.08 | 0.00 | ||
| 20260508063009 | 16 | 72 | 0.0 | 0.0 | 0.00 | 0.08 | 0.00 | ||
| 20260508062007 | 15 | 72 | 0.0 | 0.0 | 0.00 | 0.08 | 0.00 | ||
| 20260508061508 | 15 | 103 | 3.2 | 3.2 | 0.00 | 0.08 | 0.00 | ||
| 20260508060508 | 16 | 63 | 0.0 | 0.0 | 0.00 | 0.08 | 0.00 | ||
| 20260508060006 | 16 | 63 | 0.0 | 0.0 | 0.00 | 0.08 | 0.00 | ||
| 20260508055507 | 16 | 63 | 0.0 | 0.0 | 0.00 | 0.08 | 0.00 | ||
| 20260508055004 | 16 | 77 | 1.6 | 1.6 | 0.00 | 0.08 | 0.00 | ||
| 20260508054505 | 16 | 114 | 3.2 | 1.6 | 0.00 | 0.08 | 0.00 | ||
| 20260508054004 | 16 | 110 | 3.2 | 1.6 | 0.00 | 0.08 | 0.00 | ||
| 20260508053505 | 16 | 84 | 0.0 | 0.0 | 0.00 | 0.08 | 0.00 | ||
| 20260508053017 | 17 | 187 | 0.0 | 0.0 | 0.00 | 0.08 | 0.00 | ||
| 20260508053003 | 16 | 132 | 3.2 | 3.2 | 0.00 | 0.08 | 0.00 | ||
| 20260508052504 | 16 | 94 | 4.8 | 3.2 | 0.00 | 0.08 | 0.00 | ||
| 20260508052002 | 16 | 80 | 3.2 | 1.6 | 0.00 | 0.08 | 0.00 | ||
| 20260508051503 | 16 | 160 | 0.0 | 4.8 | 0.00 | 0.08 | 0.00 | ||
| 20260508051132 | 17 | 70 | 4.8 | 6.4 | 0.00 | 0.08 | 0.00 | ||
| 20260508051002 | 16 | 58 | 1.6 | 4.8 | 0.00 | 0.08 | 0.00 | ||
| 20260508050503 | 17 | 187 | 0.0 | 0.0 | 0.00 | 0.08 | 0.00 | ||
| 20260508050001 | 17 | 125 | 4.8 | 4.8 | 0.00 | 0.08 | 0.00 | ||
| 20260508045502 | 17 | 83 | 6.4 | 6.4 | 0.00 | 0.08 | 0.00 | ||
| 20260508045000 | 17 | 70 | 4.8 | 6.4 | 0.00 | 0.08 | 0.00 | ||
| 20260508044501 | 17 | 105 | 6.4 | 3.2 | 0.00 | 0.08 | 0.00 | ||
| 20260508044000 | 17 | 69 | 6.4 | 6.4 | 0.00 | 0.08 | 0.00 | ||
| 20260508043501 | 18 | 49 | 6.4 | 3.2 | 0.00 | 0.08 | 0.00 | ||
| 20260508042959 | 18 | 132 | 6.4 | 4.8 | 0.00 | 0.08 | 0.00 | ||
| 20260508042500 | 18 | 79 | 4.8 | 4.8 | 0.00 | 0.08 | 0.00 | ||
| 20260508041958 | 18 | 91 | 3.2 | 3.2 | 0.00 | 0.08 | 0.00 | ||
| 20260508041459 | 18 | 69 | 3.2 | 3.2 | 0.00 | 0.08 | 0.00 | ||
| 20260508040657 | 21 | 249 | 0.0 | 0.0 | 0.00 | 0.00 | 0.08 | ||
| 20260508040617 | 20 | 330 | 0.0 | 0.0 | 0.00 | 0.00 | 0.08 | ||
| 20260508040459 | 20 | 13 | 8.0 | 4.8 | 0.00 | 0.00 | 0.08 | ||
| 20260508035507 | 21 | 219 | 0.0 | 0.0 | 0.00 | 0.00 | 0.08 | ||
| 20260508035458 | 21 | 125 | 1.6 | 4.8 | 0.00 | 0.00 | 0.08 | ||
| 20260508034956 | 20 | 291 | 0.0 | 0.0 | 0.00 | 0.00 | 0.08 | ||
| 20260508034537 | 21 | 15 | 1.6 | 4.8 | 0.00 | 0.00 | 0.08 | ||
| 20260508034457 | 20 | 316 | 0.0 | 3.2 | 0.00 | 0.00 | 0.08 | ||
| 20260508033955 | 21 | 212 | 3.2 | 1.6 | 0.00 | 0.00 | 0.08 | ||
| 20260508033456 | 20 | 349 | 1.6 | 3.2 | 0.00 | 0.00 | 0.08 | ||
| 20260508032955 | 20 | 315 | 3.2 | 3.2 | 0.00 | 0.00 | 0.08 | ||
| 20260508032837 | 21 | 298 | 3.2 | 0.0 | 0.00 | 0.00 | 0.08 | ||
| 20260508032456 | 20 | 290 | 1.6 | 0.0 | 0.00 | 0.00 | 0.08 | ||
| 20260508031954 | 20 | 266 | 0.0 | 0.0 | 0.00 | 0.00 | 0.08 | ||
| 20260508031455 | 20 | 249 | 0.0 | 0.0 | 0.00 | 0.00 | 0.08 | ||
| 20260508030953 | 21 | 249 | 0.0 | 0.0 | 0.00 | 0.00 | 0.08 | ||
| 20260508030454 | 20 | 330 | 0.0 | 0.0 | 0.00 | 0.00 | 0.08 | ||
| 20260508025953 | 21 | 219 | 0.0 | 0.0 | 0.00 | 0.00 | 0.08 | ||
| 20260508025454 | 21 | 219 | 0.0 | 0.0 | 0.00 | 0.00 | 0.08 | ||
| 20260508024952 | 20 | 219 | 1.6 | 0.0 | 0.00 | 0.00 | 0.08 | ||
| 20260508024453 | 21 | 15 | 1.6 | 4.8 | 0.00 | 0.00 | 0.08 | ||
| 20260508023951 | 21 | 301 | 3.2 | 3.2 | 0.00 | 0.00 | 0.08 | ||
| 20260508023452 | 21 | 309 | 6.4 | 6.4 | 0.00 | 0.00 | 0.08 | ||
| 20260508022950 | 21 | 298 | 3.2 | 0.0 | 0.00 | 0.00 | 0.08 | ||
| 20260508022451 | 21 | 253 | 1.6 | 3.2 | 0.00 | 0.00 | 0.08 | ||
| 20260508021949 | 21 | 170 | 4.8 | 1.6 | 0.00 | 0.00 | 0.08 | ||
| 20260508021450 | 21 | 354 | 3.2 | 6.4 | 0.00 | 0.00 | 0.08 | ||
| 20260508020948 | 21 | 214 | 0.0 | 0.0 | 0.00 | 0.00 | 0.08 | ||
| 20260508020449 | 21 | 276 | 1.6 | 1.6 | 0.00 | 0.00 | 0.08 | ||
| 20260508020248 | 21 | 352 | 1.6 | 1.6 | 0.00 | 0.00 | 0.08 | ||
| 20260508015950 | 22 | 197 | 0.0 | 3.2 | 0.00 | 0.00 | 0.08 | ||
| 20260508015947 | 21 | 300 | 0.0 | 3.2 | 0.00 | 0.00 | 0.08 | ||
| 20260508015514 | 22 | 350 | 0.0 | 1.6 | 0.00 | 0.00 | 0.08 | ||
| 20260508015448 | 21 | 359 | 3.2 | 3.2 | 0.00 | 0.00 | 0.08 | ||
| 20260508015037 | 22 | 339 | 1.6 | 1.6 | 0.00 | 0.00 | 0.08 | ||
| 20260508014947 | 21 | 259 | 0.0 | 0.0 | 0.00 | 0.00 | 0.08 | ||
| 20260508014726 | 22 | 332 | 0.0 | 0.0 | 0.00 | 0.00 | 0.08 | ||
| 20260508014546 | 22 | 263 | 0.0 | 0.0 | 0.00 | 0.00 | 0.08 | ||
| 20260508014448 | 21 | 352 | 1.6 | 1.6 | 0.00 | 0.00 | 0.08 | ||
| 20260508014436 | 22 | 267 | 3.2 | 4.8 | 0.00 | 0.00 | 0.08 | ||
| 20260508013946 | 21 | 307 | 1.6 | 3.2 | 0.00 | 0.00 | 0.08 | ||
| 20260508013447 | 21 | 198 | 0.0 | 0.0 | 0.00 | 0.00 | 0.08 | ||
| 20260508012945 | 21 | 263 | 4.8 | 4.8 | 0.00 | 0.00 | 0.08 | ||
| 20260508012446 | 21 | 287 | 1.6 | 1.6 | 0.00 | 0.00 | 0.08 | ||
| 20260508011944 | 21 | 302 | 0.0 | 1.6 | 0.00 | 0.00 | 0.08 | ||
| 20260508011445 | 21 | 239 | 0.0 | 0.0 | 0.00 | 0.00 | 0.08 | ||
| 20260508010943 | 21 | 345 | 1.6 | 0.0 | 0.00 | 0.00 | 0.08 | ||
| 20260508010444 | 21 | 335 | 1.6 | 1.6 | 0.00 | 0.00 | 0.08 | ||
| 20260508005943 | 21 | 325 | 1.6 | 1.6 | 0.00 | 0.00 | 0.08 | ||
| 20260508005444 | 22 | 318 | 1.6 | 3.2 | 0.00 | 0.00 | 0.08 | ||
| 20260508004942 | 22 | 8 | 1.6 | 3.2 | 0.00 | 0.00 | 0.08 | ||
| 20260508004443 | 22 | 262 | 0.0 | 0.0 | 0.00 | 0.00 | 0.08 | ||
| 20260508003941 | 22 | 197 | 0.0 | 3.2 | 0.00 | 0.00 | 0.08 | ||
| 20260508003442 | 22 | 350 | 0.0 | 1.6 | 0.00 | 0.00 | 0.08 | ||
| 20260508002940 | 22 | 339 | 1.6 | 1.6 | 0.00 | 0.00 | 0.08 | ||
| 20260508002441 | 22 | 332 | 0.0 | 0.0 | 0.00 | 0.00 | 0.08 | ||
| 20260508001940 | 22 | 263 | 0.0 | 0.0 | 0.00 | 0.00 | 0.08 | ||
| 20260508001440 | 22 | 267 | 3.2 | 4.8 | 0.00 | 0.00 | 0.08 | ||
| 20260508000939 | 22 | 309 | 1.6 | 0.0 | 0.00 | 0.00 | 0.08 | ||
| 20260508000441 | 22 | 328 | 1.6 | 0.0 | 0.00 | 0.00 | 0.08 | ||
| 20260508000436 | 23 | 243 | 3.2 | 1.6 | 0.00 | 0.00 | 0.08 | ||
| 20260507234437 | 23 | 281 | 3.2 | 1.6 | 0.00 | 0.00 | 0.08 | ||
| 20260507233935 | 23 | 269 | 3.2 | 0.0 | 0.00 | 0.00 | 0.08 | ||
| 20260507233436 | 23 | 340 | 1.6 | 3.2 | 0.00 | 0.00 | 0.08 | ||
| 20260507232934 | 23 | 243 | 3.2 | 1.6 | 0.00 | 0.00 | 0.08 | ||
| 20260507232435 | 23 | 323 | 0.0 | 0.0 | 0.00 | 0.00 | 0.08 | ||
| 20260507231933 | 23 | 294 | 4.8 | 8.0 | 0.00 | 0.00 | 0.08 | ||
| 20260507231434 | 23 | 326 | 6.4 | 6.4 | 0.00 | 0.00 | 0.08 | ||
| 20260507230932 | 23 | 328 | 3.2 | 4.8 | 0.00 | 0.00 | 0.08 | ||
| 20260507230433 | 23 | 319 | 4.8 | 4.8 | 0.00 | 0.00 | 0.08 | ||
| 20260507225433 | 23 | 242 | 1.6 | 3.2 | 0.00 | 0.00 | 0.08 | ||
| 20260507224931 | 23 | 278 | 4.8 | 3.2 | 0.00 | 0.00 | 0.08 | ||
| 20260507224432 | 23 | 290 | 6.4 | 4.8 | 0.00 | 0.00 | 0.08 | ||
| 20260507223930 | 23 | 290 | 4.8 | 8.0 | 0.00 | 0.00 | 0.08 | ||
| 20260507222929 | 23 | 325 | 4.8 | 3.2 | 0.00 | 0.00 | 0.08 | ||
| 20260507222430 | 23 | 325 | 4.8 | 3.2 | 0.00 | 0.00 | 0.08 | ||
| 20260507221928 | 23 | 302 | 3.2 | 6.4 | 0.00 | 0.00 | 0.08 | ||
| 20260507220927 | 23 | 314 | 6.4 | 9.7 | 0.00 | 0.00 | 0.08 | ||
| 20260507220428 | 23 | 325 | 8.0 | 4.8 | 0.00 | 0.00 | 0.08 | ||
| 20260507215927 | 23 | 318 | 6.4 | 8.0 | 0.00 | 0.00 | 0.08 | ||
| 20260507215428 | 23 | 325 | 4.8 | 1.6 | 0.00 | 0.00 | 0.08 | ||
| 20260507214926 | 23 | 315 | 6.4 | 6.4 | 0.00 | 0.00 | 0.08 | ||
| 20260507214427 | 23 | 318 | 9.7 | 6.4 | 0.00 | 0.00 | 0.08 | ||
| 20260507213925 | 23 | 336 | 6.4 | 6.4 | 0.00 | 0.00 | 0.08 | ||
| 20260507213427 | 23 | 319 | 6.4 | 4.8 | 0.00 | 0.00 | 0.08 | ||
| 20260507212924 | 23 | 309 | 9.7 | 6.4 | 0.00 | 0.00 | 0.08 | ||
| 20260507212425 | 23 | 285 | 6.4 | 9.7 | 0.00 | 0.00 | 0.08 | ||
| 20260507211924 | 23 | 288 | 9.7 | 8.0 | 0.00 | 0.00 | 0.08 | ||
| 20260507211425 | 23 | 335 | 8.0 | 9.7 | 0.00 | 0.00 | 0.08 | ||
| 20260507210923 | 23 | 163 | 6.4 | 3.2 | 0.00 | 0.00 | 0.08 | ||
| 20260507205922 | 23 | 226 | 9.7 | 12.9 | 0.08 | 0.00 | 0.08 | ||
| 20260507204921 | 23 | 285 | 14.5 | 11.3 | 0.08 | 0.00 | 0.08 | ||
| 20260507204422 | 23 | 329 | 8.0 | 8.0 | 0.08 | 0.00 | 0.08 | ||
| 20260507203421 | 22 | 295 | 6.4 | 8.0 | 0.08 | 0.00 | 0.08 | ||
| 20260507202920 | 22 | 359 | 9.7 | 8.0 | 0.08 | 0.00 | 0.08 | ||
| 20260507202420 | 22 | 349 | 4.8 | 9.7 | 0.08 | 0.00 | 0.08 | ||
| 20260507201919 | 22 | 340 | 4.8 | 14.5 | 0.08 | 0.00 | 0.08 | ||
| 20260507201420 | 22 | 318 | 6.4 | 4.8 | 0.08 | 0.00 | 0.08 | ||
| 20260507200918 | 22 | 232 | 0.0 | 0.0 | 0.08 | 0.00 | 0.08 | ||
| 20260507200419 | 21 | 281 | 0.0 | 0.0 | 0.00 | 0.00 | 0.08 | ||
| 20260507195417 | 22 | 352 | 3.2 | 0.0 | 0.00 | 0.00 | 0.08 | ||
| 20260507194915 | 22 | 347 | 0.0 | 0.0 | 0.00 | 0.00 | 0.08 | ||
| 20260507194416 | 21 | 347 | 0.0 | 0.0 | 0.00 | 0.00 | 0.08 | ||
| 20260507193914 | 22 | 283 | 3.2 | 3.2 | 0.00 | 0.00 | 0.08 | ||
| 20260507193416 | 21 | 322 | 1.6 | 4.8 | 0.00 | 0.00 | 0.05 | ||
| 20260507192914 | 22 | 347 | 6.4 | 0.0 | 0.00 | 0.00 | 0.05 | ||
| 20260507192415 | 22 | 342 | 3.2 | 3.2 | 0.00 | 0.00 | 0.03 | ||
| 20260507191913 | 22 | 312 | 1.6 | 3.2 | 0.00 | 0.00 | 0.03 | ||
| 20260507191414 | 23 | 263 | 3.2 | 0.0 | 0.00 | 0.00 | 0.03 | ||
| 20260507190912 | 23 | 314 | 6.4 | 4.8 | 0.00 | 0.00 | 0.00 | ||
| 20260507190413 | 23 | 283 | 4.8 | 4.8 | 0.00 | 0.00 | 0.00 | ||
| 20260507185911 | 24 | 290 | 6.4 | 6.4 | 0.00 | 0.00 | 0.00 | ||
| 20260507185412 | 24 | 300 | 4.8 | 3.2 | 0.00 | 0.00 | 0.00 | ||
| 20260507184910 | 24 | 318 | 8.0 | 6.4 | 0.00 | 0.00 | 0.00 | ||
| 20260507184412 | 25 | 338 | 6.4 | 9.7 | 0.00 | 0.00 | 0.00 | ||
| 20260507183910 | 25 | 231 | 8.0 | 1.6 | 0.00 | 0.00 | 0.00 | ||
| 20260507183411 | 25 | 266 | 8.0 | 11.3 | 0.00 | 0.00 | 0.00 | ||
| 20260507182909 | 25 | 304 | 4.8 | 8.0 | 0.00 | 0.00 | 0.00 | ||
| 20260507182410 | 25 | 356 | 1.6 | 0.0 | 0.00 | 0.00 | 0.00 | ||
| 20260507181908 | 24 | 295 | 6.4 | 4.8 | 0.00 | 0.00 | 0.00 | ||
| 20260507181410 | 24 | 273 | 0.0 | 1.6 | 0.00 | 0.00 | 0.00 | ||
| 20260507180409 | 23 | 256 | 1.6 | 0.0 | 0.00 | 0.00 | 0.00 | ||
| 20260507175907 | 23 | 262 | 0.0 | 0.0 | 0.00 | 0.00 | 0.00 | ||
| 20260507175408 | 23 | 309 | 3.2 | 3.2 | 0.00 | 0.00 | 0.00 | ||
| 20260507174906 | 23 | 305 | 0.0 | 1.6 | 0.00 | 0.00 | 0.00 | ||
| 20260507174407 | 23 | 323 | 3.2 | 1.6 | 0.00 | 0.00 | 0.00 | ||
| 20260507173906 | 23 | 346 | 3.2 | 3.2 | 0.00 | 0.00 | 0.00 | ||
| 20260507173407 | 23 | 325 | 1.6 | 0.0 | 0.00 | 0.00 | 0.00 | ||
| 20260507172905 | 23 | 280 | 4.8 | 0.0 | 0.00 | 0.00 | 0.00 | ||
| 20260507172406 | 23 | 198 | 3.2 | 0.0 | 0.00 | 0.00 | 0.00 | ||
| 20260507171905 | 23 | 238 | 0.0 | 0.0 | 0.00 | 0.00 | 0.00 | ||
| 20260507171405 | 23 | 256 | 1.6 | 3.2 | 0.00 | 0.00 | 0.00 | ||
| 20260507170904 | 23 | 278 | 4.8 | 3.2 | 0.00 | 0.00 | 0.00 | ||
| 20260507170405 | 23 | 295 | 0.0 | 0.0 | 0.00 | 0.00 | 0.00 | ||
| 20260507165903 | 22 | 208 | 0.0 | 0.0 | 0.00 | 0.00 | 0.00 | ||
| 20260507165404 | 22 | 359 | 3.2 | 1.6 | 0.00 | 0.00 | 0.00 | ||
| 20260507164902 | 22 | 307 | 0.0 | 0.0 | 0.00 | 0.00 | 0.00 | ||
| 20260507164403 | 22 | 305 | 1.6 | 0.0 | 0.00 | 0.00 | 0.00 | ||
| 20260507163901 | 22 | 238 | 1.6 | 3.2 | 0.00 | 0.00 | 0.00 | ||
| 20260507163402 | 22 | 249 | 3.2 | 1.6 | 0.00 | 0.00 | 0.00 | ||
| 20260507162901 | 22 | 149 | 0.0 | 0.0 | 0.00 | 0.00 | 0.00 | ||
| 20260507162402 | 22 | 155 | 1.6 | 4.8 | 0.00 | 0.00 | 0.00 | ||
| 20260507161900 | 22 | 101 | 1.6 | 0.0 | 0.00 | 0.00 | 0.00 | ||
| 20260507161401 | 22 | 14 | 0.0 | 0.0 | 0.00 | 0.00 | 0.00 | ||
| 20260507160859 | 22 | 48 | 1.6 | 3.2 | 0.00 | 0.00 | 0.00 | ||
| 20260507160400 | 22 | 277 | 4.8 | 9.7 | 0.00 | 0.00 | 0.00 | ||
| 20260507155858 | 22 | 207 | 3.2 | 0.0 | 0.00 | 0.00 | 0.00 | ||
| 20260507155359 | 22 | 308 | 0.0 | 0.0 | 0.00 | 0.00 | 0.00 | ||
| 20260507154858 | 23 | 7 | 6.4 | 8.0 | 0.00 | 0.00 | 0.00 | ||
| 20260507154359 | 23 | 278 | 6.4 | 3.2 | 0.00 | 0.00 | 0.00 | ||
| 20260507153857 | 23 | 359 | 3.2 | 8.0 | 0.00 | 0.00 | 0.00 | ||
| 20260507153358 | 23 | 117 | 1.6 | 1.6 | 0.00 | 0.00 | 0.00 | ||
| 20260507152856 | 23 | 295 | 3.2 | 1.6 | 0.00 | 0.00 | 0.00 | ||
| 20260507152357 | 23 | 260 | 4.8 | 3.2 | 0.00 | 0.00 | 0.00 | ||
| 20260507151855 | 23 | 259 | 3.2 | 1.6 | 0.00 | 0.00 | 0.00 | ||
| 20260507151356 | 23 | 329 | 4.8 | 4.8 | 0.00 | 0.00 | 0.00 | ||
| 20260507150356 | 23 | 249 | 6.4 | 4.8 | 0.00 | 0.00 | 0.00 | ||
| 20260507145854 | 23 | 297 | 4.8 | 4.8 | 0.00 | 0.00 | 0.00 | ||
| 20260507145355 | 23 | 328 | 4.8 | 1.6 | 0.00 | 0.00 | 0.00 | ||
| 20260507144853 | 23 | 352 | 4.8 | 3.2 | 0.00 | 0.00 | 0.00 | ||
| 20260507144354 | 22 | 329 | 3.2 | 11.3 | 0.00 | 0.00 | 0.00 | ||
| 20260507143852 | 22 | 277 | 4.8 | 4.8 | 0.00 | 0.00 | 0.00 | ||
| 20260507143353 | 22 | 333 | 1.6 | 3.2 | 0.00 | 0.00 | 0.00 | ||
| 20260507142851 | 22 | 231 | 1.6 | 1.6 | 0.00 | 0.00 | 0.00 | ||
| 20260507142352 | 23 | 356 | 3.2 | 4.8 | 0.00 | 0.00 | 0.00 | ||
| 20260507141851 | 23 | 346 | 3.2 | 1.6 | 0.00 | 0.00 | 0.00 | ||
| 20260507141352 | 22 | 349 | 1.6 | 1.6 | 0.00 | 0.00 | 0.00 | ||
| 20260507140849 | 22 | 305 | 1.6 | 1.6 | 0.00 | 0.00 | 0.00 | ||
| 20260507140351 | 22 | 318 | 1.6 | 3.2 | 0.00 | 0.00 | 0.00 | ||
| 20260507135847 | 22 | 271 | 6.4 | 3.2 | 0.00 | 0.00 | 0.00 | ||
| 20260507135348 | 22 | 315 | 0.0 | 0.0 | 0.00 | 0.00 | 0.00 | ||
| 20260507134845 | 22 | 315 | 0.0 | 0.0 | 0.00 | 0.00 | 0.00 | ||
| 20260507134345 | 22 | 315 | 0.0 | 0.0 | 0.00 | 0.00 | 0.00 | ||
| 20260507133842 | 22 | 315 | 0.0 | 0.0 | 0.00 | 0.00 | 0.00 | ||
| 20260507133342 | 22 | 315 | 0.0 | 0.0 | 0.00 | 0.00 | 0.00 | ||
| 20260507132839 | 21 | 315 | 0.0 | 0.0 | 0.00 | 0.00 | 0.00 | ||
| 20260507132340 | 21 | 315 | 0.0 | 0.0 | 0.00 | 0.00 | 0.00 | ||
| 20260507131836 | 22 | 315 | 0.0 | 0.0 | 0.00 | 0.00 | 0.00 | ||
| 20260507131337 | 22 | 315 | 0.0 | 0.0 | 0.00 | 0.00 | 0.00 | ||
| 20260507130833 | 21 | 315 | 3.2 | 0.0 | 0.00 | 0.00 | 0.00 | ||
| 20260507130334 | 21 | 69 | 0.0 | 0.0 | 0.00 | 0.00 | 0.00 | ||
| 20260507125832 | 21 | 138 | 6.4 | 9.7 | 0.00 | 0.00 | 0.00 | ||
| 20260507124831 | 21 | 232 | 0.0 | 0.0 | 0.00 | 0.00 | 0.00 | ||
| 20260507124332 | 22 | 232 | 0.0 | 0.0 | 0.00 | 0.00 | 0.00 | ||
| 20260507123831 | 21 | 346 | 0.0 | 0.0 | 0.00 | 0.00 | 0.00 | ||
| 20260507123332 | 21 | 346 | 0.0 | 0.0 | 0.00 | 0.00 | 0.00 | ||
| 20260507122830 | 21 | 0 | 0.0 | 0.0 | 0.00 | 0.00 | 0.00 | ||
| 20260507121828 | 21 | 318 | 1.6 | 0.0 | 0.00 | 0.00 | 0.00 | ||
| 20260507121330 | 21 | 276 | 0.0 | 0.0 | 0.00 | 0.00 | 0.00 | ||
| 20260507120827 | 21 | 10 | 1.6 | 3.2 | 0.00 | 0.00 | 0.00 | ||
| 20260507120328 | 21 | 339 | 0.0 | 0.0 | 0.00 | 0.00 | 0.00 | ||
| 20260507115826 | 21 | 226 | 0.0 | 0.0 | 0.00 | 0.00 | 0.00 | ||
| 20260507115327 | 21 | 326 | 4.8 | 1.6 | 0.00 | 0.00 | 0.00 | ||
| 20260507114826 | 21 | 236 | 0.0 | 0.0 | 0.00 | 0.00 | 0.00 | ||
| 20260507114327 | 21 | 257 | 0.0 | 0.0 | 0.00 | 0.00 | 0.00 | ||
| 20260507113825 | 20 | 13 | 0.0 | 0.0 | 0.00 | 0.00 | 0.00 | ||
| 20260507113327 | 21 | 13 | 0.0 | 0.0 | 0.00 | 0.00 | 0.00 | ||
| 20260507112822 | 21 | 13 | 0.0 | 0.0 | 0.00 | 0.00 | 0.00 | ||
| 20260507112323 | 21 | 13 | 0.0 | 0.0 | 0.00 | 0.00 | 0.00 | ||
| 20260507111821 | 21 | 13 | 0.0 | 0.0 | 0.00 | 0.00 | 0.00 | ||
| 20260507111322 | 21 | 13 | 0.0 | 0.0 | 0.00 | 0.00 | 0.00 | ||
| 20260507110821 | 21 | 13 | 0.0 | 0.0 | 0.00 | 0.00 | 0.00 | ||
| 20260507110322 | 21 | 13 | 0.0 | 0.0 | 0.00 | 0.00 | 0.00 | ||
| 20260507105820 | 21 | 13 | 0.0 | 0.0 | 0.00 | 0.00 | 0.00 |